Location: Gälforsberget
(66.6500°N, 22.4167°E)
Time: 02:05:37
(UTC+00:00)

Cosmos 2369 Rocket - Pass Details

Date: 11 April 2026
Orbit: 829 x 850 km, 71.0° (Epoch: 20 May)

Event Time Altitude Azimuth Distance (km) Brightness Sun altitude
Rises 22:53:30 0° 316° (NW) 3,390 6.0 -14.6°
Reaches altitude 10° 22:57:12 10° 292° (WNW) 2,449 4.8 -14.6°
Maximum altitude 22:59:49 14° 264° (W) 2,199 4.2 -14.6°
Drops below altitude 10° 23:02:26 10° 236° (SW) 2,440 4.2 -14.5°
Enters shadow 23:02:35 10° 234° (SW) 2,468 4.2 -14.5°
